Stündliche Wetter Cedry

Heute, 23 Oktober, Freitag

Zeit Temperatur Niederschläge Wind Luftdruck Luftfeuchtigkeit
00:00 +11°C° 0 mm 3 m/S 744 mmHg 92%
01:00 +11°C° 0 mm 3 m/S 744 mmHg 92%
02:00 +11°C° 0 mm 3 m/S 744 mmHg 91%
03:00 +11°C° 0 mm 4 m/S 743 mmHg 90%
04:00 +11°C° 0 mm 4 m/S 743 mmHg 89%
05:00 +10°C° 0 mm 5 m/S 742 mmHg 87%
06:00 +12°C° 0 mm 5 m/S 742 mmHg 85%
07:00 +12°C° 0 mm 5 m/S 742 mmHg 84%
08:00 +12°C° 0.1 mm 5 m/S 742 mmHg 83%
09:00 +13°C° 0.1 mm 5 m/S 742 mmHg 82%
10:00 +13°C° 0.1 mm 5 m/S 742 mmHg 82%
11:00 +14°C° 0 mm 5 m/S 742 mmHg 80%
12:00 +15°C° 0 mm 5 m/S 742 mmHg 77%
13:00 +15°C° 0 mm 5 m/S 742 mmHg 75%
14:00 +15°C° 0 mm 4 m/S 742 mmHg 76%
15:00 +15°C° 0 mm 4 m/S 742 mmHg 78%
16:00 +14°C° 0 mm 3 m/S 742 mmHg 79%
17:00 +13°C° 0 mm 3 m/S 742 mmHg 82%
18:00 +13°C° 0 mm 2 m/S 742 mmHg 86%
19:00 +13°C° 0 mm 2 m/S 742 mmHg 89%
20:00 +12°C° 0 mm 2 m/S 742 mmHg 90%
21:00 +12°C° 0 mm 1 m/S 743 mmHg 92%
22:00 +11°C° 0 mm 1 m/S 743 mmHg 93%
23:00 +11°C° 0 mm 1 m/S 743 mmHg 93%

Morgen, 24 Oktober, Samstag

Zeit Temperatur Niederschläge Wind Luftdruck Luftfeuchtigkeit
00:00 +11°C° 0 mm 1 m/S 742 mmHg 93%
01:00 +10°C° 0 mm 0 m/S 742 mmHg 93%
02:00 +11°C° 0.2 mm 1 m/S 742 mmHg 93%
03:00 +11°C° 0.2 mm 1 m/S 742 mmHg 94%
04:00 +12°C° 0.2 mm 1 m/S 742 mmHg 95%
05:00 +12°C° 1.3 mm 1 m/S 742 mmHg 96%
06:00 +12°C° 1.3 mm 1 m/S 742 mmHg 97%
07:00 +12°C° 1.3 mm 1 m/S 741 mmHg 97%
08:00 +12°C° 1.1 mm 2 m/S 741 mmHg 96%
09:00 +12°C° 1.1 mm 2 m/S 741 mmHg 95%
10:00 +12°C° 1.1 mm 2 m/S 741 mmHg 94%
11:00 +13°C° 0.1 mm 2 m/S 742 mmHg 89%
12:00 +13°C° 0.1 mm 3 m/S 742 mmHg 85%
13:00 +13°C° 0.1 mm 3 m/S 742 mmHg 81%
14:00 +13°C° 0.2 mm 3 m/S 742 mmHg 83%
15:00 +12°C° 0.2 mm 3 m/S 742 mmHg 85%
16:00 +12°C° 0.2 mm 3 m/S 742 mmHg 87%
17:00 +11°C° 0 mm 3 m/S 743 mmHg 89%
18:00 +11°C° 0 mm 3 m/S 744 mmHg 90%
19:00 +10°C° 0 mm 3 m/S 744 mmHg 92%
20:00 +9°C° 0 mm 3 m/S 745 mmHg 92%
21:00 +9°C° 0 mm 3 m/S 745 mmHg 93%
22:00 +8°C° 0 mm 3 m/S 745 mmHg 93%
23:00 +8°C° 0 mm 3 m/S 745 mmHg 93%

übermorgen, 25 Oktober, Sonntag

Zeit Temperatur Niederschläge Wind Luftdruck Luftfeuchtigkeit
00:00 +8°C° 0 mm 2 m/S 745 mmHg 93%
01:00 +7°C° 0 mm 2 m/S 746 mmHg 92%
02:00 +7°C° 0 mm 2 m/S 746 mmHg 91%
03:00 +8°C° 0 mm 2 m/S 746 mmHg 90%
04:00 +8°C° 0 mm 2 m/S 746 mmHg 88%
05:00 +8°C° 0 mm 2 m/S 746 mmHg 89%
06:00 +8°C° 0 mm 3 m/S 746 mmHg 89%
07:00 +8°C° 0 mm 3 m/S 747 mmHg 90%
08:00 +9°C° 0 mm 3 m/S 747 mmHg 86%
09:00 +10°C° 0 mm 3 m/S 747 mmHg 82%
10:00 +12°C° 0 mm 3 m/S 747 mmHg 78%
11:00 +12°C° 0 mm 3 m/S 747 mmHg 75%
12:00 +13°C° 0 mm 3 m/S 747 mmHg 71%
13:00 +14°C° 0 mm 3 m/S 747 mmHg 68%
14:00 +13°C° 0 mm 3 m/S 747 mmHg 72%
15:00 +13°C° 0 mm 2 m/S 747 mmHg 76%
16:00 +12°C° 0 mm 2 m/S 746 mmHg 81%
17:00 +11°C° 0 mm 3 m/S 747 mmHg 83%
18:00 +10°C° 0 mm 3 m/S 747 mmHg 86%
19:00 +9°C° 0 mm 3 m/S 747 mmHg 88%
20:00 +9°C° 0 mm 3 m/S 747 mmHg 88%
21:00 +9°C° 0 mm 3 m/S 747 mmHg 88%
22:00 +8°C° 0 mm 3 m/S 747 mmHg 88%
23:00 +8°C° 0 mm 3 m/S 747 mmHg 89%

, 26 Oktober, Montag

Zeit Temperatur Niederschläge Wind Luftdruck Luftfeuchtigkeit
00:00 +8°C° 0 mm 3 m/S 747 mmHg 90%
01:00 +7°C° 0 mm 3 m/S 747 mmHg 91%
02:00 +7°C° 0 mm 3 m/S 746 mmHg 92%
03:00 +7°C° 0 mm 3 m/S 746 mmHg 93%
04:00 +7°C° 0 mm 3 m/S 746 mmHg 93%
05:00 +6°C° 0 mm 4 m/S 746 mmHg 94%
06:00 +6°C° 0 mm 4 m/S 746 mmHg 94%
07:00 +6°C° 0 mm 4 m/S 745 mmHg 95%
08:00 +8°C° 0 mm 5 m/S 745 mmHg 88%
09:00 +9°C° 0 mm 5 m/S 745 mmHg 82%
10:00 +11°C° 0 mm 6 m/S 745 mmHg 76%
11:00 +11°C° 0 mm 6 m/S 745 mmHg 73%
12:00 +13°C° 0 mm 6 m/S 744 mmHg 71%
13:00 +14°C° 0 mm 6 m/S 744 mmHg 68%
14:00 +13°C° 0 mm 6 m/S 744 mmHg 72%
15:00 +12°C° 0 mm 5 m/S 743 mmHg 76%
16:00 +10°C° 0 mm 5 m/S 743 mmHg 80%
17:00 +10°C° 0 mm 5 m/S 743 mmHg 80%
18:00 +12°C° 0 mm 5 m/S 743 mmHg 80%
19:00 +12°C° 0 mm 5 m/S 743 mmHg 81%
20:00 +10°C° 0 mm 5 m/S 742 mmHg 81%
21:00 +10°C° 0 mm 5 m/S 742 mmHg 82%
22:00 +10°C° 0 mm 5 m/S 742 mmHg 83%
23:00 +10°C° 0 mm 5 m/S 742 mmHg 85%

26 Oktober, Montag

Zeit Temperatur Niederschläge Wind Luftdruck Luftfeuchtigkeit
00:00 +8°C° 0 mm 3 m/S 747 mmHg 90%
01:00 +7°C° 0 mm 3 m/S 747 mmHg 91%
02:00 +7°C° 0 mm 3 m/S 746 mmHg 92%
03:00 +7°C° 0 mm 3 m/S 746 mmHg 93%
04:00 +7°C° 0 mm 3 m/S 746 mmHg 93%
05:00 +6°C° 0 mm 4 m/S 746 mmHg 94%
06:00 +6°C° 0 mm 4 m/S 746 mmHg 94%
07:00 +6°C° 0 mm 4 m/S 745 mmHg 95%
08:00 +8°C° 0 mm 5 m/S 745 mmHg 88%
09:00 +9°C° 0 mm 5 m/S 745 mmHg 82%
10:00 +11°C° 0 mm 6 m/S 745 mmHg 76%
11:00 +11°C° 0 mm 6 m/S 745 mmHg 73%
12:00 +13°C° 0 mm 6 m/S 744 mmHg 71%
13:00 +14°C° 0 mm 6 m/S 744 mmHg 68%
14:00 +13°C° 0 mm 6 m/S 744 mmHg 72%
15:00 +12°C° 0 mm 5 m/S 743 mmHg 76%
16:00 +10°C° 0 mm 5 m/S 743 mmHg 80%
17:00 +10°C° 0 mm 5 m/S 743 mmHg 80%
18:00 +12°C° 0 mm 5 m/S 743 mmHg 80%
19:00 +12°C° 0 mm 5 m/S 743 mmHg 81%
20:00 +10°C° 0 mm 5 m/S 742 mmHg 81%
21:00 +10°C° 0 mm 5 m/S 742 mmHg 82%
22:00 +10°C° 0 mm 5 m/S 742 mmHg 83%
23:00 +10°C° 0 mm 5 m/S 742 mmHg 85%

27 Oktober, Dienstag

Zeit Temperatur Niederschläge Wind Luftdruck Luftfeuchtigkeit
00:00 +10°C° 0 mm 5 m/S 742 mmHg 87%
01:00 +9°C° 0 mm 5 m/S 742 mmHg 89%
02:00 +9°C° 0 mm 5 m/S 742 mmHg 91%
03:00 +9°C° 0 mm 5 m/S 742 mmHg 93%
04:00 +8°C° 0 mm 5 m/S 741 mmHg 94%
05:00 +8°C° 0 mm 4 m/S 742 mmHg 95%
06:00 +8°C° 0 mm 4 m/S 742 mmHg 95%
07:00 +8°C° 0 mm 4 m/S 742 mmHg 95%
08:00 +10°C° 0 mm 4 m/S 742 mmHg 90%
09:00 +11°C° 0 mm 4 m/S 742 mmHg 85%
10:00 +12°C° 0 mm 5 m/S 742 mmHg 80%
11:00 +13°C° 0 mm 4 m/S 742 mmHg 77%
12:00 +14°C° 0 mm 4 m/S 743 mmHg 74%
13:00 +15°C° 0 mm 4 m/S 743 mmHg 70%
14:00 +14°C° 0 mm 4 m/S 743 mmHg 75%
15:00 +14°C° 0 mm 3 m/S 743 mmHg 79%
16:00 +13°C° 0 mm 3 m/S 743 mmHg 83%
17:00 +12°C° 0 mm 3 m/S 743 mmHg 86%
18:00 +12°C° 0 mm 3 m/S 743 mmHg 88%
19:00 +11°C° 0 mm 3 m/S 743 mmHg 90%
20:00 +11°C° 0 mm 3 m/S 743 mmHg 91%
21:00 +11°C° 0 mm 3 m/S 744 mmHg 92%
22:00 +10°C° 0 mm 3 m/S 744 mmHg 92%
23:00 +10°C° 0 mm 2 m/S 744 mmHg 92%

28 Oktober, Mittwoch

Zeit Temperatur Niederschläge Wind Luftdruck Luftfeuchtigkeit
00:00 +10°C° 0 mm 2 m/S 744 mmHg 93%
01:00 +10°C° 0 mm 2 m/S 744 mmHg 93%
02:00 +9°C° 0 mm 2 m/S 744 mmHg 93%
03:00 +10°C° 0 mm 1 m/S 744 mmHg 93%
04:00 +10°C° 0 mm 1 m/S 744 mmHg 93%
05:00 +10°C° 0 mm 1 m/S 744 mmHg 93%
06:00 +10°C° 0 mm 1 m/S 745 mmHg 93%
07:00 +10°C° 0 mm 1 m/S 745 mmHg 93%
08:00 +11°C° 0 mm 1 m/S 745 mmHg 88%
09:00 +13°C° 0 mm 1 m/S 745 mmHg 83%
10:00 +14°C° 0 mm 1 m/S 745 mmHg 77%
11:00 +15°C° 0 mm 1 m/S 745 mmHg 74%
12:00 +16°C° 0 mm 1 m/S 745 mmHg 71%
13:00 +16°C° 0 mm 1 m/S 745 mmHg 68%
14:00 +16°C° 0 mm 1 m/S 745 mmHg 74%
15:00 +15°C° 0 mm 1 m/S 745 mmHg 79%
16:00 +14°C° 0 mm 1 m/S 745 mmHg 84%
17:00 +13°C° 0 mm 2 m/S 745 mmHg 86%
18:00 +12°C° 0 mm 2 m/S 745 mmHg 88%
19:00 +12°C° 0 mm 2 m/S 745 mmHg 91%
20:00 +12°C° 0 mm 2 m/S 746 mmHg 92%
21:00 +10°C° 0 mm 2 m/S 746 mmHg 93%
22:00 +10°C° 0 mm 2 m/S 746 mmHg 95%
23:00 +10°C° 0 mm 2 m/S 746 mmHg 95%
Mehr zeigen